contact:dominique.lefevre@mio.osupytheas.fr, maurice.libes@osupytheas.fr, didier.mallarino@osupytheas.fr
Project:EMSO http://www.emso-fr.org/EMSO-France
Depth: 2436.0 m
Title:EMSO Ligure Ouest : Data MII capteur CSTAR
DateTime,Latitude,Longitude,Instrument_Serial,Reference_Counts,Signal_Counts,Corrected_Signal_raw_counts,Calculated_Beam_c_inverse_meters,Internal_thermistor_counts
DateTime,Latitude,Longitude,Instrument_Serial,Reference_Counts,Signal_Counts,Corrected_Signal_raw_counts,Calculated_Beam_c_inverse_meters,Internal_thermistor_counts
2019-12-23T00:01:47,42.805,6.029,CST-1368DR,7106,9963,15285,0.086,551
2019-12-23T00:04:48,42.805,6.029,CST-1368DR,7106,9962,15282,0.086,551
2019-12-23T00:07:50,42.805,6.029,CST-1368DR,7106,9963,15285,0.086,551
2019-12-23T00:10:52,42.805,6.029,CST-1368DR,7106,9961,15282,0.086,551
2019-12-23T00:13:53,42.805,6.029,CST-1368DR,7106,9962,15283,0.086,550
2019-12-23T00:16:55,42.805,6.029,CST-1368DR,7106,9963,15284,0.086,551
2019-12-23T00:19:57,42.805,6.029,CST-1368DR,7106,9963,15284,0.086,551
2019-12-23T00:22:58,42.805,6.029,CST-1368DR,7106,9962,15283,0.086,550
2019-12-23T00:26:00,42.805,6.029,CST-1368DR,7106,9962,15283,0.086,551
2019-12-23T00:29:02,42.805,6.029,CST-1368DR,7106,9962,15282,0.086,551
2019-12-23T00:32:03,42.805,6.029,CST-1368DR,7106,9960,15280,0.087,551
2019-12-23T00:35:05,42.805,6.029,CST-1368DR,7106,9963,15284,0.086,551
2019-12-23T00:38:07,42.805,6.029,CST-1368DR,7106,9963,15285,0.086,551
2019-12-23T00:41:08,42.805,6.029,CST-1368DR,7106,9963,15285,0.086,551
2019-12-23T00:44:10,42.805,6.029,CST-1368DR,7106,9963,15284,0.086,551
2019-12-23T00:47:11,42.805,6.029,CST-1368DR,7106,9963,15284,0.086,551
2019-12-23T00:50:13,42.805,6.029,CST-1368DR,7106,9962,15283,0.086,551
2019-12-23T00:53:15,42.805,6.029,CST-1368DR,7106,9963,15284,0.086,551
2019-12-23T00:56:16,42.805,6.029,CST-1368DR,7106,9962,15283,0.086,551
2019-12-23T00:59:18,42.805,6.029,CST-1368DR,7106,9962,15283,0.086,551
2019-12-23T01:02:20,42.805,6.029,CST-1368DR,7106,9962,15282,0.086,551
2019-12-23T01:05:21,42.805,6.029,CST-1368DR,7106,9963,15284,0.086,551
2019-12-23T01:08:23,42.805,6.029,CST-1368DR,7106,9962,15283,0.086,550
2019-12-23T01:11:25,42.805,6.029,CST-1368DR,7106,9963,15284,0.086,551
2019-12-23T01:14:26,42.805,6.029,CST-1368DR,7106,9963,15284,0.086,551
2019-12-23T01:17:28,42.805,6.029,CST-1368DR,7106,9963,15284,0.086,551
2019-12-23T01:20:29,42.805,6.029,CST-1368DR,7106,9963,15284,0.086,551
2019-12-23T01:23:31,42.805,6.029,CST-1368DR,7106,9963,15284,0.086,551
2019-12-23T01:26:33,42.805,6.029,CST-1368DR,7106,9963,15285,0.086,551
2019-12-23T01:29:34,42.805,6.029,CST-1368DR,7106,9956,15274,0.089,551
2019-12-23T01:32:36,42.805,6.029,CST-1368DR,7106,9963,15284,0.086,551
2019-12-23T01:35:38,42.805,6.029,CST-1368DR,7106,9962,15282,0.086,551
2019-12-23T01:38:39,42.805,6.029,CST-1368DR,7106,9962,15283,0.086,551
2019-12-23T01:41:41,42.805,6.029,CST-1368DR,7106,9961,15282,0.086,551
2019-12-23T01:44:43,42.805,6.029,CST-1368DR,7106,9962,15283,0.086,551
2019-12-23T01:47:44,42.805,6.029,CST-1368DR,7106,9962,15283,0.086,550
2019-12-23T01:50:46,42.805,6.029,CST-1368DR,7106,9962,15282,0.086,551
2019-12-23T01:53:47,42.805,6.029,CST-1368DR,7106,9962,15283,0.086,551
2019-12-23T01:56:49,42.805,6.029,CST-1368DR,7106,9962,15283,0.086,551
2019-12-23T01:59:51,42.805,6.029,CST-1368DR,7106,9962,15283,0.086,551
2019-12-23T02:02:52,42.805,6.029,CST-1368DR,7106,9961,15282,0.086,551
2019-12-23T02:05:54,42.805,6.029,CST-1368DR,7106,9962,15282,0.086,551
2019-12-23T02:08:56,42.805,6.029,CST-1368DR,7106,9962,15282,0.086,550
2019-12-23T02:11:57,42.805,6.029,CST-1368DR,7106,9962,15282,0.086,551
2019-12-23T02:14:59,42.805,6.029,CST-1368DR,7106,9962,15282,0.086,551
2019-12-23T02:18:01,42.805,6.029,CST-1368DR,7106,9962,15283,0.086,551
2019-12-23T02:21:02,42.805,6.029,CST-1368DR,7106,9961,15281,0.087,551
2019-12-23T02:24:04,42.805,6.029,CST-1368DR,7105,9961,15283,0.086,551
2019-12-23T02:27:06,42.805,6.029,CST-1368DR,7105,9962,15284,0.086,551
2019-12-23T02:30:07,42.805,6.029,CST-1368DR,7105,9961,15284,0.086,550
2019-12-23T02:33:09,42.805,6.029,CST-1368DR,7105,9961,15284,0.086,551
2019-12-23T02:36:11,42.805,6.029,CST-1368DR,7105,9961,15284,0.086,551
2019-12-23T02:39:12,42.805,6.029,CST-1368DR,7105,9961,15283,0.086,551
2019-12-23T02:42:14,42.805,6.029,CST-1368DR,7105,9962,15284,0.086,551
2019-12-23T02:45:16,42.805,6.029,CST-1368DR,7105,9962,15284,0.086,551
2019-12-23T02:48:17,42.805,6.029,CST-1368DR,7105,9960,15283,0.086,551
2019-12-23T02:51:19,42.805,6.029,CST-1368DR,7105,9959,15281,0.087,551
2019-12-23T02:54:21,42.805,6.029,CST-1368DR,7105,9960,15283,0.086,551
2019-12-23T02:57:23,42.805,6.029,CST-1368DR,7105,9961,15284,0.086,550
2019-12-23T03:00:24,42.805,6.029,CST-1368DR,7105,9959,15281,0.087,551
2019-12-23T03:03:26,42.805,6.029,CST-1368DR,7105,9962,15284,0.086,551
2019-12-23T03:06:28,42.805,6.029,CST-1368DR,7105,9961,15284,0.086,551
2019-12-23T03:09:29,42.805,6.029,CST-1368DR,7105,9960,15283,0.086,550
2019-12-23T03:12:31,42.805,6.029,CST-1368DR,7105,9961,15284,0.086,551
2019-12-23T03:15:33,42.805,6.029,CST-1368DR,7105,9961,15283,0.086,551
2019-12-23T03:18:34,42.805,6.029,CST-1368DR,7105,9961,15283,0.086,551
2019-12-23T03:21:36,42.805,6.029,CST-1368DR,7105,9960,15282,0.086,551
2019-12-23T03:24:38,42.805,6.029,CST-1368DR,7105,9961,15283,0.086,551
2019-12-23T03:27:39,42.805,6.029,CST-1368DR,7105,9959,15281,0.087,551
2019-12-23T03:30:41,42.805,6.029,CST-1368DR,7105,9960,15283,0.086,551
2019-12-23T03:33:42,42.805,6.029,CST-1368DR,7105,9960,15282,0.086,551
2019-12-23T03:36:44,42.805,6.029,CST-1368DR,7105,9960,15283,0.086,551
2019-12-23T03:39:46,42.805,6.029,CST-1368DR,7105,9961,15283,0.086,551
2019-12-23T03:42:47,42.805,6.029,CST-1368DR,7105,9962,15284,0.086,551
2019-12-23T03:45:49,42.805,6.029,CST-1368DR,7105,9961,15284,0.086,551
2019-12-23T03:48:51,42.805,6.029,CST-1368DR,7105,9960,15283,0.086,551
2019-12-23T03:51:52,42.805,6.029,CST-1368DR,7105,9961,15284,0.086,551
2019-12-23T03:54:54,42.805,6.029,CST-1368DR,7105,9960,15283,0.086,551
2019-12-23T03:57:55,42.805,6.029,CST-1368DR,7105,9961,15284,0.086,551
2019-12-23T04:00:57,42.805,6.029,CST-1368DR,7105,9961,15283,0.086,551
2019-12-23T04:03:59,42.805,6.029,CST-1368DR,7105,9960,15282,0.086,551
2019-12-23T04:07:00,42.805,6.029,CST-1368DR,7105,9960,15283,0.086,551
2019-12-23T04:10:02,42.805,6.029,CST-1368DR,7105,9961,15283,0.086,551
2019-12-23T04:13:04,42.805,6.029,CST-1368DR,7105,9961,15284,0.086,551
2019-12-23T04:16:05,42.805,6.029,CST-1368DR,7105,9960,15282,0.086,551
2019-12-23T04:19:07,42.805,6.029,CST-1368DR,7105,9960,15282,0.086,550
2019-12-23T04:22:10,42.805,6.029,CST-1368DR,7105,9959,15280,0.087,551
2019-12-23T04:25:11,42.805,6.029,CST-1368DR,7105,9960,15282,0.086,551
2019-12-23T04:28:13,42.805,6.029,CST-1368DR,7105,9959,15280,0.087,551
2019-12-23T04:31:14,42.805,6.029,CST-1368DR,7105,9957,15277,0.088,551
2019-12-23T04:34:16,42.805,6.029,CST-1368DR,7105,9960,15281,0.087,551
2019-12-23T04:37:18,42.805,6.029,CST-1368DR,7105,9959,15281,0.087,551
2019-12-23T04:40:19,42.805,6.029,CST-1368DR,7105,9960,15282,0.086,551
2019-12-23T04:43:21,42.805,6.029,CST-1368DR,7105,9959,15281,0.087,551
2019-12-23T04:46:23,42.805,6.029,CST-1368DR,7105,9960,15283,0.086,551
2019-12-23T04:49:24,42.805,6.029,CST-1368DR,7105,9961,15283,0.086,550
2019-12-23T04:52:27,42.805,6.029,CST-1368DR,7105,9960,15282,0.086,551
2019-12-23T04:55:29,42.805,6.029,CST-1368DR,7105,9960,15281,0.087,551
2019-12-23T04:58:31,42.805,6.029,CST-1368DR,7105,9960,15283,0.086,551
2019-12-23T05:01:33,42.805,6.029,CST-1368DR,7105,9958,15278,0.088,551
2019-12-23T05:04:34,42.805,6.029,CST-1368DR,7105,9960,15283,0.086,550
2019-12-23T05:07:36,42.805,6.029,CST-1368DR,7105,9960,15282,0.086,551
2019-12-23T05:10:38,42.805,6.029,CST-1368DR,7105,9958,15279,0.087,551
2019-12-23T05:13:39,42.805,6.029,CST-1368DR,7105,9961,15283,0.086,551
2019-12-23T05:16:41,42.805,6.029,CST-1368DR,7105,9958,15279,0.087,551
2019-12-23T05:19:43,42.805,6.029,CST-1368DR,7105,9961,15283,0.086,551
2019-12-23T05:22:44,42.805,6.029,CST-1368DR,7105,9960,15282,0.086,551
2019-12-23T05:25:46,42.805,6.029,CST-1368DR,7105,9961,15283,0.086,550
2019-12-23T05:28:48,42.805,6.029,CST-1368DR,7105,9958,15278,0.088,551
2019-12-23T05:31:49,42.805,6.029,CST-1368DR,7105,9961,15284,0.086,551
2019-12-23T05:34:51,42.805,6.029,CST-1368DR,7105,9961,15283,0.086,551
2019-12-23T05:37:53,42.805,6.029,CST-1368DR,7105,9961,15283,0.086,551
2019-12-23T05:40:54,42.805,6.029,CST-1368DR,7105,9961,15283,0.086,551
2019-12-23T05:43:56,42.805,6.029,CST-1368DR,7105,9957,15278,0.088,551
2019-12-23T05:46:58,42.805,6.029,CST-1368DR,7105,9960,15281,0.087,551
2019-12-23T05:49:59,42.805,6.029,CST-1368DR,7105,9960,15282,0.086,551
2019-12-23T05:53:01,42.805,6.029,CST-1368DR,7105,9961,15283,0.086,551
2019-12-23T05:56:03,42.805,6.029,CST-1368DR,7105,9960,15283,0.086,551
2019-12-23T05:59:04,42.805,6.029,CST-1368DR,7105,9960,15282,0.086,551
2019-12-23T06:02:06,42.805,6.029,CST-1368DR,7104,9961,15285,0.086,551
2019-12-23T06:05:08,42.805,6.029,CST-1368DR,7105,9959,15281,0.087,551
2019-12-23T06:08:09,42.805,6.029,CST-1368DR,7105,9959,15281,0.087,551
2019-12-23T06:11:11,42.805,6.029,CST-1368DR,7105,9960,15282,0.086,551
2019-12-23T06:14:13,42.805,6.029,CST-1368DR,7105,9960,15281,0.087,551
2019-12-23T06:17:14,42.805,6.029,CST-1368DR,7104,9959,15282,0.086,551
2019-12-23T06:20:16,42.805,6.029,CST-1368DR,7104,9960,15284,0.086,551
2019-12-23T06:23:17,42.805,6.029,CST-1368DR,7104,9959,15282,0.086,551
2019-12-23T06:26:19,42.805,6.029,CST-1368DR,7104,9959,15282,0.086,551
2019-12-23T06:29:21,42.805,6.029,CST-1368DR,7104,9958,15281,0.087,551
2019-12-23T06:32:22,42.805,6.029,CST-1368DR,7104,9959,15282,0.086,551
2019-12-23T06:35:24,42.805,6.029,CST-1368DR,7104,9958,15281,0.087,551
2019-12-23T06:38:26,42.805,6.029,CST-1368DR,7104,9958,15281,0.087,551
2019-12-23T06:41:27,42.805,6.029,CST-1368DR,7104,9959,15282,0.086,551
2019-12-23T06:44:29,42.805,6.029,CST-1368DR,7104,9954,15275,0.088,551
2019-12-23T06:47:31,42.805,6.029,CST-1368DR,7104,9960,15284,0.086,551
2019-12-23T06:50:32,42.805,6.029,CST-1368DR,7104,9958,15281,0.087,551
2019-12-23T06:53:34,42.805,6.029,CST-1368DR,7104,9958,15281,0.087,551
2019-12-23T06:56:35,42.805,6.029,CST-1368DR,7104,9958,15280,0.087,551
2019-12-23T06:59:37,42.805,6.029,CST-1368DR,7104,9960,15283,0.086,550
2019-12-23T07:02:39,42.805,6.029,CST-1368DR,7104,9959,15283,0.086,551
2019-12-23T07:05:41,42.805,6.029,CST-1368DR,7104,9960,15283,0.086,550
2019-12-23T07:08:42,42.805,6.029,CST-1368DR,7104,9959,15282,0.086,551
2019-12-23T07:11:44,42.805,6.029,CST-1368DR,7104,9960,15283,0.086,551
2019-12-23T07:14:45,42.805,6.029,CST-1368DR,7104,9960,15285,0.086,551
2019-12-23T07:17:47,42.805,6.029,CST-1368DR,7104,9959,15283,0.086,551
2019-12-23T07:20:49,42.805,6.029,CST-1368DR,7104,9960,15284,0.086,551
2019-12-23T07:23:50,42.805,6.029,CST-1368DR,7104,9959,15282,0.086,551
2019-12-23T07:26:52,42.805,6.029,CST-1368DR,7104,9959,15283,0.086,551
2019-12-23T07:29:54,42.805,6.029,CST-1368DR,7104,9959,15282,0.086,551
2019-12-23T07:32:55,42.805,6.029,CST-1368DR,7104,9960,15284,0.086,551
2019-12-23T07:35:57,42.805,6.029,CST-1368DR,7104,9959,15282,0.086,551
2019-12-23T07:38:59,42.805,6.029,CST-1368DR,7104,9959,15282,0.086,551
2019-12-23T07:42:00,42.805,6.029,CST-1368DR,7104,9960,15284,0.086,551
2019-12-23T07:45:02,42.805,6.029,CST-1368DR,7104,9959,15282,0.086,551
2019-12-23T07:48:03,42.805,6.029,CST-1368DR,7104,9959,15282,0.086,551
2019-12-23T07:51:05,42.805,6.029,CST-1368DR,7104,9960,15283,0.086,551
2019-12-23T07:54:07,42.805,6.029,CST-1368DR,7104,9959,15282,0.086,551
2019-12-23T07:57:08,42.805,6.029,CST-1368DR,7104,9959,15282,0.086,551
2019-12-23T08:00:10,42.805,6.029,CST-1368DR,7104,9959,15282,0.086,551
2019-12-23T08:03:12,42.805,6.029,CST-1368DR,7104,9958,15281,0.087,551
2019-12-23T08:06:13,42.805,6.029,CST-1368DR,7104,9959,15282,0.086,551
2019-12-23T08:09:15,42.805,6.029,CST-1368DR,7104,9959,15282,0.086,551
2019-12-23T08:12:16,42.805,6.029,CST-1368DR,7104,9959,15283,0.086,551
2019-12-23T08:15:18,42.805,6.029,CST-1368DR,7104,9959,15282,0.086,551
2019-12-23T08:18:20,42.805,6.029,CST-1368DR,7104,9959,15283,0.086,551
2019-12-23T08:21:21,42.805,6.029,CST-1368DR,7104,9957,15280,0.087,551
2019-12-23T08:24:23,42.805,6.029,CST-1368DR,7104,9958,15281,0.087,551
2019-12-23T08:27:25,42.805,6.029,CST-1368DR,7104,9958,15281,0.087,551
2019-12-23T08:30:26,42.805,6.029,CST-1368DR,7104,9958,15281,0.087,551
2019-12-23T08:33:28,42.805,6.029,CST-1368DR,7104,9958,15281,0.087,551
2019-12-23T08:36:30,42.805,6.029,CST-1368DR,7104,9960,15284,0.086,551
2019-12-23T08:39:31,42.805,6.029,CST-1368DR,7104,9960,15283,0.086,551
2019-12-23T08:42:33,42.805,6.029,CST-1368DR,7104,9958,15281,0.087,551
2019-12-23T08:45:35,42.805,6.029,CST-1368DR,7104,9958,15281,0.087,551
2019-12-23T08:48:36,42.805,6.029,CST-1368DR,7104,9959,15282,0.086,551
2019-12-23T08:51:38,42.805,6.029,CST-1368DR,7104,9959,15282,0.086,551
2019-12-23T08:54:40,42.805,6.029,CST-1368DR,7104,9960,15283,0.086,551
2019-12-23T08:57:41,42.805,6.029,CST-1368DR,7104,9959,15282,0.086,551
2019-12-23T09:00:43,42.805,6.029,CST-1368DR,7104,9958,15281,0.087,551
2019-12-23T09:03:44,42.805,6.029,CST-1368DR,7104,9959,15282,0.086,551
2019-12-23T09:06:46,42.805,6.029,CST-1368DR,7104,9951,15270,0.090,551
2019-12-23T09:09:48,42.805,6.029,CST-1368DR,7104,9958,15281,0.087,551
2019-12-23T09:12:49,42.805,6.029,CST-1368DR,7104,9958,15281,0.087,551
2019-12-23T09:15:51,42.805,6.029,CST-1368DR,7104,9958,15281,0.087,551
2019-12-23T09:18:53,42.805,6.029,CST-1368DR,7104,9958,15281,0.087,551
2019-12-23T09:21:54,42.805,6.029,CST-1368DR,7104,9956,15278,0.088,551
2019-12-23T09:24:56,42.805,6.029,CST-1368DR,7104,9958,15281,0.087,551
2019-12-23T09:27:58,42.805,6.029,CST-1368DR,7104,9958,15281,0.087,551
2019-12-23T09:30:59,42.805,6.029,CST-1368DR,7104,9958,15281,0.087,551
2019-12-23T09:34:01,42.805,6.029,CST-1368DR,7104,9959,15282,0.086,551
2019-12-23T09:37:03,42.805,6.029,CST-1368DR,7104,9958,15281,0.087,551
2019-12-23T09:40:04,42.805,6.029,CST-1368DR,7104,9958,15281,0.087,551
2019-12-23T09:43:06,42.805,6.029,CST-1368DR,7104,9958,15281,0.087,551
2019-12-23T09:46:07,42.805,6.029,CST-1368DR,7103,9954,15277,0.088,551
2019-12-23T09:49:09,42.805,6.029,CST-1368DR,7104,9958,15280,0.087,551
2019-12-23T09:52:11,42.805,6.029,CST-1368DR,7103,9958,15283,0.086,551
2019-12-23T09:55:13,42.805,6.029,CST-1368DR,7104,9958,15280,0.087,551
2019-12-23T09:58:14,42.805,6.029,CST-1368DR,7104,9957,15280,0.087,551
2019-12-23T10:01:16,42.805,6.029,CST-1368DR,7104,9957,15279,0.087,551
2019-12-23T10:04:18,42.805,6.029,CST-1368DR,7104,9958,15280,0.087,551
2019-12-23T10:07:19,42.805,6.029,CST-1368DR,7103,9958,15283,0.086,551
2019-12-23T10:10:21,42.805,6.029,CST-1368DR,7103,9957,15282,0.086,550
2019-12-23T10:13:23,42.805,6.029,CST-1368DR,7104,9958,15281,0.087,551
2019-12-23T10:16:25,42.805,6.029,CST-1368DR,7103,9958,15283,0.086,551
2019-12-23T10:19:26,42.805,6.029,CST-1368DR,7103,9958,15283,0.086,551
2019-12-23T10:22:28,42.805,6.029,CST-1368DR,7103,9958,15283,0.086,551
2019-12-23T10:25:30,42.805,6.029,CST-1368DR,7103,9958,15283,0.086,551
2019-12-23T10:28:31,42.805,6.029,CST-1368DR,7103,9957,15281,0.087,551
2019-12-23T10:31:33,42.805,6.029,CST-1368DR,7103,9957,15282,0.086,551
2019-12-23T10:34:35,42.805,6.029,CST-1368DR,7103,9958,15283,0.086,551
2019-12-23T10:37:36,42.805,6.029,CST-1368DR,7103,9958,15283,0.086,551
2019-12-23T10:40:38,42.805,6.029,CST-1368DR,7103,9958,15283,0.086,551
2019-12-23T10:43:40,42.805,6.029,CST-1368DR,7103,9957,15282,0.086,551
2019-12-23T10:46:41,42.805,6.029,CST-1368DR,7103,9957,15281,0.087,551
2019-12-23T10:49:43,42.805,6.029,CST-1368DR,7103,9957,15282,0.086,551
2019-12-23T10:52:45,42.805,6.029,CST-1368DR,7103,9957,15281,0.087,551
2019-12-23T10:55:46,42.805,6.029,CST-1368DR,7103,9958,15282,0.086,551
2019-12-23T10:58:48,42.805,6.029,CST-1368DR,7103,9957,15281,0.087,551
2019-12-23T11:01:49,42.805,6.029,CST-1368DR,7103,9956,15280,0.087,551
2019-12-23T11:04:51,42.805,6.029,CST-1368DR,7103,9957,15281,0.087,551
2019-12-23T11:07:53,42.805,6.029,CST-1368DR,7103,9957,15281,0.087,551
2019-12-23T11:10:54,42.805,6.029,CST-1368DR,7103,9956,15280,0.087,550
2019-12-23T11:13:56,42.805,6.029,CST-1368DR,7103,9957,15282,0.086,551
2019-12-23T11:16:58,42.805,6.029,CST-1368DR,7103,9956,15280,0.087,551
2019-12-23T11:19:59,42.805,6.029,CST-1368DR,7103,9957,15281,0.087,551
2019-12-23T11:23:01,42.805,6.029,CST-1368DR,7103,9957,15282,0.086,551
2019-12-23T11:26:03,42.805,6.029,CST-1368DR,7103,9957,15281,0.087,551
2019-12-23T11:29:04,42.805,6.029,CST-1368DR,7103,9957,15282,0.086,550
2019-12-23T11:32:06,42.805,6.029,CST-1368DR,7103,9957,15281,0.087,551
2019-12-23T11:35:08,42.805,6.029,CST-1368DR,7103,9957,15282,0.086,551
2019-12-23T11:38:09,42.805,6.029,CST-1368DR,7103,9957,15281,0.087,551
2019-12-23T11:41:11,42.805,6.029,CST-1368DR,7103,9956,15280,0.087,551
2019-12-23T11:44:13,42.805,6.029,CST-1368DR,7103,9957,15281,0.087,551
2019-12-23T11:47:14,42.805,6.029,CST-1368DR,7103,9957,15281,0.087,551
2019-12-23T11:50:16,42.805,6.029,CST-1368DR,7103,9958,15282,0.086,551
2019-12-23T11:53:18,42.805,6.029,CST-1368DR,7103,9957,15281,0.087,551
2019-12-23T11:56:19,42.805,6.029,CST-1368DR,7103,9957,15281,0.087,551
2019-12-23T11:59:21,42.805,6.029,CST-1368DR,7103,9956,15280,0.087,551
2019-12-23T12:02:22,42.805,6.029,CST-1368DR,7103,9957,15282,0.086,551
2019-12-23T12:05:24,42.805,6.029,CST-1368DR,7103,9958,15283,0.086,551
2019-12-23T12:08:26,42.805,6.029,CST-1368DR,7103,9958,15283,0.086,551
2019-12-23T12:11:27,42.805,6.029,CST-1368DR,7103,9952,15273,0.089,551
2019-12-23T12:14:29,42.805,6.029,CST-1368DR,7103,9957,15281,0.087,551
2019-12-23T12:17:31,42.805,6.029,CST-1368DR,7103,9957,15281,0.087,550
2019-12-23T12:20:33,42.805,6.029,CST-1368DR,7103,9957,15282,0.086,551
2019-12-23T12:23:34,42.805,6.029,CST-1368DR,7103,9957,15281,0.087,551
2019-12-23T12:26:36,42.805,6.029,CST-1368DR,7103,9957,15282,0.086,551
2019-12-23T12:29:37,42.805,6.029,CST-1368DR,7103,9953,15275,0.088,551
2019-12-23T12:32:39,42.805,6.029,CST-1368DR,7103,9954,15277,0.088,551
2019-12-23T12:35:41,42.805,6.029,CST-1368DR,7103,9957,15281,0.087,551
2019-12-23T12:38:42,42.805,6.029,CST-1368DR,7103,9957,15281,0.087,551
2019-12-23T12:41:44,42.805,6.029,CST-1368DR,7103,9957,15281,0.087,551
2019-12-23T12:44:46,42.805,6.029,CST-1368DR,7103,9956,15280,0.087,550
2019-12-23T12:47:47,42.805,6.029,CST-1368DR,7103,9957,15281,0.087,551
2019-12-23T12:50:49,42.805,6.029,CST-1368DR,7103,9957,15281,0.087,550
2019-12-23T12:53:51,42.805,6.029,CST-1368DR,7103,9957,15282,0.086,551
2019-12-23T12:56:52,42.805,6.029,CST-1368DR,7103,9957,15282,0.086,551
2019-12-23T12:59:54,42.805,6.029,CST-1368DR,7103,9956,15280,0.087,551
2019-12-23T13:02:55,42.805,6.029,CST-1368DR,7103,9957,15281,0.087,551
2019-12-23T13:05:57,42.805,6.029,CST-1368DR,7103,9956,15280,0.087,551
2019-12-23T13:08:59,42.805,6.029,CST-1368DR,7103,9956,15280,0.087,551
2019-12-23T13:12:00,42.805,6.029,CST-1368DR,7103,9955,15278,0.088,550
2019-12-23T13:15:02,42.805,6.029,CST-1368DR,7103,9956,15280,0.087,551
2019-12-23T13:18:04,42.805,6.029,CST-1368DR,7103,9955,15279,0.087,551
2019-12-23T13:21:05,42.805,6.029,CST-1368DR,7102,9956,15282,0.086,551
2019-12-23T13:24:07,42.805,6.029,CST-1368DR,7103,9956,15280,0.087,551
2019-12-23T13:27:09,42.805,6.029,CST-1368DR,7103,9957,15281,0.087,551
2019-12-23T13:30:10,42.805,6.029,CST-1368DR,7103,9955,15278,0.088,551
2019-12-23T13:33:12,42.805,6.029,CST-1368DR,7103,9956,15280,0.087,551
2019-12-23T13:36:13,42.805,6.029,CST-1368DR,7103,9956,15280,0.087,551
2019-12-23T13:39:15,42.805,6.029,CST-1368DR,7102,9957,15283,0.086,551
2019-12-23T13:42:17,42.805,6.029,CST-1368DR,7103,9956,15280,0.087,551
2019-12-23T13:45:18,42.805,6.029,CST-1368DR,7103,9957,15281,0.087,551
2019-12-23T13:48:20,42.805,6.029,CST-1368DR,7103,9957,15281,0.087,551
2019-12-23T13:51:22,42.805,6.029,CST-1368DR,7103,9957,15282,0.086,551
2019-12-23T13:54:23,42.805,6.029,CST-1368DR,7102,9955,15280,0.087,551
2019-12-23T13:57:25,42.805,6.029,CST-1368DR,7103,9957,15281,0.087,551
2019-12-23T14:00:27,42.805,6.029,CST-1368DR,7103,9957,15281,0.087,551
2019-12-23T14:03:28,42.805,6.029,CST-1368DR,7102,9954,15279,0.087,551
2019-12-23T14:06:30,42.805,6.029,CST-1368DR,7102,9956,15282,0.086,551
2019-12-23T14:09:32,42.805,6.029,CST-1368DR,7102,9956,15282,0.086,551
2019-12-23T14:12:33,42.805,6.029,CST-1368DR,7102,9956,15282,0.086,551
2019-12-23T14:15:35,42.805,6.029,CST-1368DR,7102,9955,15280,0.087,551
2019-12-23T14:18:36,42.805,6.029,CST-1368DR,7102,9956,15282,0.086,551
2019-12-23T14:21:38,42.805,6.029,CST-1368DR,7102,9955,15280,0.087,551
2019-12-23T14:24:40,42.805,6.029,CST-1368DR,7102,9956,15282,0.086,551
2019-12-23T14:27:41,42.805,6.029,CST-1368DR,7102,9955,15281,0.087,551
2019-12-23T14:30:43,42.805,6.029,CST-1368DR,7102,9956,15282,0.086,551
2019-12-23T14:33:45,42.805,6.029,CST-1368DR,7102,9956,15282,0.086,551
2019-12-23T14:36:46,42.805,6.029,CST-1368DR,7102,9956,15282,0.086,551
2019-12-23T14:39:48,42.805,6.029,CST-1368DR,7102,9956,15282,0.086,551
2019-12-23T14:42:50,42.805,6.029,CST-1368DR,7102,9956,15282,0.086,551
2019-12-23T14:45:51,42.805,6.029,CST-1368DR,7102,9957,15283,0.086,551
2019-12-23T14:48:53,42.805,6.029,CST-1368DR,7102,9955,15280,0.087,551
2019-12-23T14:51:55,42.805,6.029,CST-1368DR,7102,9955,15280,0.087,551
2019-12-23T14:54:56,42.805,6.029,CST-1368DR,7102,9956,15282,0.086,551
2019-12-23T14:57:58,42.805,6.029,CST-1368DR,7102,9955,15280,0.087,551
2019-12-23T15:01:00,42.805,6.029,CST-1368DR,7102,9956,15282,0.086,551
2019-12-23T15:04:01,42.805,6.029,CST-1368DR,7102,9956,15282,0.086,551
2019-12-23T15:07:03,42.805,6.029,CST-1368DR,7102,9956,15282,0.086,551
2019-12-23T15:10:04,42.805,6.029,CST-1368DR,7102,9955,15281,0.087,551
2019-12-23T15:13:06,42.805,6.029,CST-1368DR,7102,9956,15282,0.086,551
2019-12-23T15:16:08,42.805,6.029,CST-1368DR,7102,9955,15280,0.087,551
2019-12-23T15:19:10,42.805,6.029,CST-1368DR,7102,9955,15281,0.087,551
2019-12-23T15:22:11,42.805,6.029,CST-1368DR,7102,9955,15281,0.087,551
2019-12-23T15:25:13,42.805,6.029,CST-1368DR,7102,9956,15282,0.086,551
2019-12-23T15:28:15,42.805,6.029,CST-1368DR,7102,9955,15280,0.087,550
2019-12-23T15:31:17,42.805,6.029,CST-1368DR,7102,9956,15282,0.086,551
2019-12-23T15:34:18,42.805,6.029,CST-1368DR,7102,9956,15282,0.086,551
2019-12-23T15:37:20,42.805,6.029,CST-1368DR,7102,9956,15282,0.086,551
2019-12-23T15:40:21,42.805,6.029,CST-1368DR,7102,9955,15281,0.087,551
2019-12-23T15:43:23,42.805,6.029,CST-1368DR,7102,9955,15280,0.087,551
2019-12-23T15:46:25,42.805,6.029,CST-1368DR,7102,9956,15282,0.086,551
2019-12-23T15:49:26,42.805,6.029,CST-1368DR,7102,9955,15280,0.087,551
2019-12-23T15:52:28,42.805,6.029,CST-1368DR,7102,9955,15280,0.087,551
2019-12-23T15:55:30,42.805,6.029,CST-1368DR,7102,9955,15280,0.087,551
2019-12-23T15:58:32,42.805,6.029,CST-1368DR,7102,9955,15280,0.087,551
2019-12-23T16:01:33,42.805,6.029,CST-1368DR,7102,9956,15282,0.086,551
2019-12-23T16:04:35,42.805,6.029,CST-1368DR,7102,9955,15280,0.087,551
2019-12-23T16:07:37,42.805,6.029,CST-1368DR,7102,9955,15281,0.087,551
2019-12-23T16:10:38,42.805,6.029,CST-1368DR,7102,9955,15280,0.087,551
2019-12-23T16:13:40,42.805,6.029,CST-1368DR,7102,9955,15280,0.087,551
2019-12-23T16:16:42,42.805,6.029,CST-1368DR,7102,9955,15280,0.087,551
2019-12-23T16:19:43,42.805,6.029,CST-1368DR,7102,9955,15280,0.087,551
2019-12-23T16:22:45,42.805,6.029,CST-1368DR,7102,9956,15282,0.086,550
2019-12-23T16:25:47,42.805,6.029,CST-1368DR,7102,9955,15281,0.087,551
2019-12-23T16:28:48,42.805,6.029,CST-1368DR,7102,9955,15280,0.087,551
2019-12-23T16:31:50,42.805,6.029,CST-1368DR,7102,9955,15281,0.087,551
2019-12-23T16:34:51,42.805,6.029,CST-1368DR,7102,9956,15282,0.086,551
2019-12-23T16:37:53,42.805,6.029,CST-1368DR,7102,9955,15281,0.087,551
2019-12-23T16:40:55,42.805,6.029,CST-1368DR,7102,9955,15280,0.087,551
2019-12-23T16:43:56,42.805,6.029,CST-1368DR,7102,9955,15280,0.087,551
2019-12-23T16:46:58,42.805,6.029,CST-1368DR,7102,9954,15279,0.087,551
2019-12-23T16:50:00,42.805,6.029,CST-1368DR,7102,9956,15282,0.086,551
2019-12-23T16:53:01,42.805,6.029,CST-1368DR,7102,9955,15280,0.087,551